Вернуться в каталог

FENGYUN 1C DEB

АктивенPO
NORAD 37406·DEBRIS·🇨🇳 China

Запущен May 10, 1999 с Taiyuan Satellite Launch Center

Loading…

Ближайшие Пролёты (ближайшие 24 часа)

TLE

СвежийSource: Space-Track

Эпоха: Sep 12, 2026, 11:00 UTC

1 37406U 99025EFY 26255.45899515  .00000484  00000-0  29562-3 0  9994
2 37406  98.4195 113.4035 0147020 210.6817 269.9202 14.05014241670751

Отслеживайте FENGYUN 1C DEB в реальном времени с AllMySat

Download on the App Store